FLOCK 4BE-8

Last updated on Mon Sep 16 2024 00:02:03 GMT+0000 (Coordinated Universal Time)

1 60515U 24149AZ 24258.88739775 .00016246 00000+0 77324-3 0 9996 2 60515 97.4376 334.0072 0006818 54.5452 305.6418 15.19217343 4414
UTC large
Height (km)
Speed (km/s)
/
Latitude / Longitude
Inclination (degrees)
Orbital Period (minutes)
Azimuth
Elevation
Range (km)
Doppler Factor

Next 0 passes for location: London (51.5072 / 0.1276)

Sorry there are no passes over London.